Wheaton NDB, MN

7:40 AM CDT on September 25, 2017 (GMT -0500)
Wheaton Municipal

Weather History for KETH - April, 2013

Change the Weather History Date:

Monday, April 1, 2013

  Actual Average Record
Temperature  
Mean Temperature 20 °F -  
Max Temperature 28 °F 48 °F 80 °F (1963)
Min Temperature 12 °F 26 °F 2 °F (1975)
Degree Days  
Heating Degree Days 45    
Moisture  
Dew Point 14 °F    
Average Humidity 76    
Maximum Humidity 86    
Minimum Humidity 59    
Precipitation  
Precipitation 0.00 in - - ()
Sea Level Pressure  
Sea Level Pressure 30.31 in    
Wind  
Wind Speed 8 mph (WNW)    
Max Wind Speed 13 mph    
Max Gust Speed -    
Visibility 10 miles    
Events      
Averages and records for this station are not official NWS values.
T = Trace of Precipitation, MM = Missing Value Source: NWS Daily Summary

Daily Weather History Graph

Daily Weather History Graph

Search for Another Location

Airport or City:

Trip Planner

Search our weather history database for the weather conditions in past years. The results will help you decide how hot, cold, wet, or windy it might be!

Date:

Astronomy

Apr. 01, 2013 Rise Set
Actual Time 7:05 AM CDT 7:54 PM CDT
Civil Twilight 6:35 AM CDT 8:25 PM CDT
Nautical Twilight 5:59 AM CDT 9:01 PM CDT
Astronomical Twilight 5:22 AM CDT 9:38 PM CDT
Moon 1:17 AM CDT (4/1) 10:39 AM CDT (4/1)
Length of Visible Light 13h 49m
Length of Day
12h 49m
Waning Gibbous, 67% of the Moon is Illuminated
Apr 1
Waning Gibbous
Apr 2
Last Quarter
Apr 10
New
Apr 18
First Quarter
Apr 25
Full

Hourly Weather History & Observations

Time (CDT) Temp. Windchill Dew Point Humidity Pressure Visibility Wind Dir Wind Speed Gust Speed Precip Events Conditions
12:15 AM 17.6 °F 5.0 °F 10.4 °F 73% 30.24 in 10.0 mi NW 11.5 mph - N/A   Clear
12:55 AM 17.6 °F 7.3 °F 10.4 °F 73% 30.25 in 10.0 mi NW 8.1 mph - N/A   Clear
1:15 AM 15.8 °F 7.2 °F 10.4 °F 79% 30.25 in 10.0 mi WNW 5.8 mph - N/A   Clear
1:35 AM 15.8 °F 6.1 °F 10.4 °F 79% 30.26 in 10.0 mi West 6.9 mph - N/A   Clear
2:14 AM 15.8 °F 6.1 °F 10.4 °F 79% 30.26 in 10.0 mi WNW 6.9 mph - N/A   Clear
2:35 AM 15.8 °F 5.1 °F 10.4 °F 79% 30.26 in 10.0 mi WNW 8.1 mph - N/A   Clear
2:55 AM 15.8 °F 5.1 °F 10.4 °F 79% 30.26 in 10.0 mi WNW 8.1 mph - N/A   Clear
3:14 AM 15.8 °F 6.1 °F 10.4 °F 79% 30.27 in 10.0 mi West 6.9 mph - N/A   Clear
3:35 AM 14.0 °F 2.9 °F 10.4 °F 86% 30.27 in 10.0 mi WNW 8.1 mph - N/A   Clear
3:55 AM 15.8 °F 3.4 °F 10.4 °F 79% 30.27 in 10.0 mi WNW 10.4 mph - N/A   Clear
4:15 AM 15.8 °F 3.4 °F 10.4 °F 79% 30.27 in 10.0 mi WNW 10.4 mph - N/A   Clear
4:35 AM 14.0 °F 2.0 °F 10.4 °F 86% 30.27 in 10.0 mi WNW 9.2 mph - N/A   Clear
4:55 AM 14.0 °F 2.9 °F 10.4 °F 86% 30.27 in 10.0 mi WNW 8.1 mph - N/A   Clear
5:15 AM 14.0 °F 2.9 °F 10.4 °F 86% 30.27 in 10.0 mi WNW 8.1 mph - N/A   Clear
5:34 AM 14.0 °F 3.9 °F 10.4 °F 86% 30.28 in 10.0 mi West 6.9 mph - N/A   Clear
5:54 AM 12.2 °F 1.7 °F 8.6 °F 85% 30.29 in 10.0 mi West 6.9 mph - N/A   Clear
6:14 AM 12.2 °F 2.9 °F 8.6 °F 85% 30.30 in 10.0 mi West 5.8 mph - N/A   Clear
6:34 AM 12.2 °F 0.7 °F 8.6 °F 85% 30.30 in 10.0 mi West 8.1 mph - N/A   Clear
6:54 AM 12.2 °F 0.7 °F 8.6 °F 85% 30.31 in 10.0 mi West 8.1 mph - N/A   Clear
7:15 AM 12.2 °F 1.7 °F 8.6 °F 85% 30.32 in 10.0 mi West 6.9 mph - N/A   Clear
7:35 AM 12.2 °F 0.7 °F 8.6 °F 85% 30.32 in 10.0 mi WNW 8.1 mph - N/A   Clear
7:54 AM 12.2 °F 0.7 °F 8.6 °F 85% 30.32 in 10.0 mi WNW 8.1 mph - N/A   Clear
8:15 AM 14.0 °F 3.9 °F 8.6 °F 79% 30.33 in 10.0 mi WNW 6.9 mph - N/A   Clear
8:34 AM 15.8 °F 7.2 °F 10.4 °F 79% 30.33 in 10.0 mi WNW 5.8 mph - N/A   Clear
8:55 AM 15.8 °F 6.1 °F 10.4 °F 79% 30.33 in 10.0 mi NW 6.9 mph - N/A   Clear
9:14 AM 15.8 °F 6.1 °F 10.4 °F 79% 30.34 in 10.0 mi WNW 6.9 mph - N/A   Clear
9:35 AM 17.6 °F 7.3 °F 10.4 °F 73% 30.35 in 10.0 mi WNW 8.1 mph - N/A   Clear
9:54 AM 17.6 °F 7.3 °F 12.2 °F 79% 30.35 in 10.0 mi WNW 8.1 mph - N/A   Clear
10:14 AM 19.4 °F 10.4 °F 12.2 °F 74% 30.35 in 10.0 mi WNW 6.9 mph - N/A   Clear
10:34 AM 19.4 °F 10.4 °F 12.2 °F 74% 30.35 in 10.0 mi WNW 6.9 mph - N/A   Clear
10:55 AM 19.4 °F 10.4 °F 14.0 °F 80% 30.35 in 10.0 mi WNW 6.9 mph - N/A   Clear
11:14 AM 21.2 °F 11.7 °F 14.0 °F 74% 30.35 in 10.0 mi NW 8.1 mph - N/A   Clear
11:34 AM 21.2 °F 11.7 °F 15.8 °F 80% 30.35 in 10.0 mi WNW 8.1 mph - N/A   Clear
11:54 AM 23.0 °F 14.7 °F 15.8 °F 74% 30.35 in 10.0 mi WNW 6.9 mph - N/A   Clear
12:14 PM 23.0 °F 13.1 °F 15.8 °F 74% 30.35 in 10.0 mi NW 9.2 mph - N/A   Clear
12:34 PM 24.8 °F 15.3 °F 17.6 °F 74% 30.35 in 10.0 mi WNW 9.2 mph - N/A   Clear
1:14 PM 24.8 °F 14.6 °F 15.8 °F 69% 30.35 in 10.0 mi WNW 10.4 mph - N/A   Clear
1:34 PM 24.8 °F 14.6 °F 15.8 °F 69% 30.35 in 10.0 mi NW 10.4 mph - N/A   Clear
1:54 PM 26.6 °F 16.8 °F 15.8 °F 64% 30.35 in 10.0 mi NW 10.4 mph - N/A   Clear
2:15 PM 26.6 °F 16.2 °F 15.8 °F 64% 30.35 in 10.0 mi WNW 11.5 mph - N/A   Clear
2:34 PM 26.6 °F 16.8 °F 15.8 °F 64% 30.35 in 10.0 mi WNW 10.4 mph - N/A   Clear
2:54 PM 26.6 °F 15.7 °F 15.8 °F 64% 30.34 in 10.0 mi WNW 12.7 mph - N/A   Clear
3:14 PM 26.6 °F 17.5 °F 15.8 °F 64% 30.34 in 10.0 mi NW 9.2 mph - N/A   Clear
3:34 PM 26.6 °F 15.7 °F 15.8 °F 64% 30.34 in 10.0 mi WNW 12.7 mph - N/A   Clear
3:55 PM 26.6 °F 16.8 °F 15.8 °F 64% 30.34 in 10.0 mi NW 10.4 mph - N/A   Clear
4:15 PM 28.4 °F 18.5 °F 15.8 °F 59% 30.34 in 10.0 mi NW 11.5 mph - N/A   Clear
4:35 PM 28.4 °F 18.5 °F 17.6 °F 64% 30.33 in 10.0 mi NW 11.5 mph - N/A   Clear
4:55 PM 28.4 °F 19.1 °F 15.8 °F 59% 30.32 in 10.0 mi NW 10.4 mph - N/A   Clear
5:15 PM 28.4 °F 19.1 °F 17.6 °F 64% 30.32 in 10.0 mi NW 10.4 mph - N/A   Clear
5:34 PM 28.4 °F 20.4 °F 17.6 °F 64% 30.32 in 10.0 mi NW 8.1 mph - N/A   Clear
5:54 PM 28.4 °F 18.5 °F 17.6 °F 64% 30.32 in 10.0 mi WNW 11.5 mph - N/A   Clear
6:15 PM 26.6 °F 18.2 °F 17.6 °F 69% 30.32 in 10.0 mi WNW 8.1 mph - N/A   Clear
6:35 PM 26.6 °F 18.2 °F 17.6 °F 69% 30.32 in 10.0 mi NW 8.1 mph - N/A   Clear
6:55 PM 26.6 °F 19.1 °F 17.6 °F 69% 30.32 in 10.0 mi NNW 6.9 mph - N/A   Clear
7:14 PM 26.6 °F 20.0 °F 17.6 °F 69% 30.31 in 10.0 mi NNW 5.8 mph - N/A   Clear
7:34 PM 24.8 °F 19.1 °F 17.6 °F 74% 30.31 in 10.0 mi NNW 4.6 mph - N/A   Clear
7:54 PM 24.8 °F 20.5 °F 17.6 °F 74% 30.30 in 10.0 mi NNW 3.5 mph - N/A   Clear
8:14 PM 24.8 °F - 17.6 °F 74% 30.30 in 10.0 mi Calm Calm - N/A   Clear
8:34 PM 23.0 °F - 17.6 °F 80% 30.30 in 10.0 mi Calm Calm - N/A   Clear
8:54 PM 23.0 °F - 17.6 °F 80% 30.30 in 10.0 mi Calm Calm - N/A   Clear
9:15 PM 21.2 °F - 17.6 °F 86% 30.31 in 10.0 mi Calm Calm - N/A   Clear
9:35 PM 21.2 °F - 17.6 °F 86% 30.31 in 10.0 mi Calm Calm - N/A   Clear
9:54 PM 21.2 °F - 15.8 °F 80% 30.31 in 10.0 mi Calm Calm - N/A   Clear
10:14 PM 21.2 °F - 15.8 °F 80% 30.31 in 10.0 mi Calm Calm - N/A   Clear
10:34 PM 21.2 °F - 15.8 °F 80% 30.31 in 10.0 mi Calm Calm - N/A   Clear
10:54 PM 21.2 °F 16.4 °F 15.8 °F 80% 30.30 in 10.0 mi SW 3.5 mph - N/A   Clear
11:14 PM 19.4 °F 14.3 °F 15.8 °F 86% 30.30 in 10.0 mi SW 3.5 mph - N/A   Clear
11:34 PM 19.4 °F 14.3 °F 15.8 °F 86% 30.30 in 10.0 mi WSW 3.5 mph - N/A   Clear
11:54 PM 19.4 °F 14.3 °F 15.8 °F 86% 30.30 in 10.0 mi WSW 3.5 mph - N/A   Clear